�������l�o���
Date,Time,MP-1(��Sv/h),MP-2(��Sv/h),MP-3(��Sv/h),MP-4(��Sv/h),MP-5(��Sv/h),MP-6(��Sv/h),MP-7(��Sv/h),����,����(m/s),���J
2015/03/23,00:00,0.542,0.333,0.563,0.521,0.555,0.254,0.224,�k�k��,4.2,��
2015/03/23,00:10,0.543,0.334,0.564,0.524,0.553,0.254,0.224,���k��,5.3,��
2015/03/23,00:20,0.542,0.333,0.563,0.521,0.556,0.253,0.223,��,8.2,��
2015/03/23,00:30,0.544,0.331,0.562,0.521,0.554,0.252,0.225,���k��,9.7,��
2015/03/23,00:40,0.543,0.333,0.564,0.521,0.554,0.254,0.224,���k��,13.2,��
2015/03/23,00:50,0.543,0.334,0.563,0.520,0.557,0.254,0.225,���k��,7.8,��
2015/03/23,01:00,0.544,0.333,0.563,0.522,0.555,0.254,0.224,�k��,7.8,��
2015/03/23,01:10,0.540,0.333,0.564,0.522,0.553,0.253,0.224,���k��,8.3,��
2015/03/23,01:20,0.542,0.333,0.563,0.521,0.556,0.254,0.225,�k��,4.9,��
2015/03/23,01:30,0.544,0.332,0.563,0.521,0.554,0.252,0.224,�k��,5.0,��
2015/03/23,01:40,0.540,0.334,0.566,0.521,0.555,0.253,0.225,�k,5.2,��
2015/03/23,01:50,0.544,0.334,0.562,0.520,0.556,0.253,0.226,�k,3.1,��
2015/03/23,02:00,0.542,0.334,0.564,0.521,0.553,0.253,0.226,�k�k��,4.5,��
2015/03/23,02:10,0.542,0.334,0.564,0.523,0.555,0.253,0.224,�k,2.4,��
2015/03/23,02:20,0.543,0.334,0.563,0.520,0.555,0.253,0.225,�k,3.1,��
2015/03/23,02:30,0.543,0.333,0.562,0.523,0.553,0.252,0.224,�k,2.5,��
2015/03/23,02:40,0.541,0.334,0.566,0.524,0.554,0.253,0.225,�k�k��,1.5,��
2015/03/23,02:50,0.545,0.333,0.564,0.522,0.553,0.253,0.224,�k,3.3,��
2015/03/23,03:00,0.543,0.333,0.564,0.522,0.556,0.254,0.223,�k�k��,3.1,��
2015/03/23,03:10,0.544,0.334,0.566,0.524,0.553,0.252,0.225,�k,1.9,��
2015/03/23,03:20,0.546,0.333,0.562,0.523,0.555,0.254,0.225,�k,3.9,��
2015/03/23,03:30,0.544,0.333,0.562,0.521,0.556,0.255,0.224,�k,3.4,��
2015/03/23,03:40,0.542,0.333,0.565,0.523,0.554,0.254,0.225,�k,6.0,��
2015/03/23,03:50,0.545,0.333,0.563,0.521,0.555,0.253,0.225,�k,6.5,��
2015/03/23,04:00,0.542,0.333,0.562,0.521,0.555,0.254,0.224,�k,6.7,��
2015/03/23,04:10,0.543,0.333,0.564,0.524,0.553,0.255,0.224,�k,7.5,��
2015/03/23,04:20,0.544,0.333,0.564,0.521,0.552,0.253,0.224,�k,6.3,��
2015/03/23,04:30,0.543,0.334,0.563,0.521,0.558,0.254,0.225,�k,6.0,��
2015/03/23,04:40,0.542,0.333,0.564,0.522,0.554,0.254,0.224,�k,3.4,��
2015/03/23,04:50,0.545,0.333,0.564,0.523,0.554,0.253,0.224,�k,3.1,��
2015/03/23,05:00,0.542,0.333,0.562,0.519,0.553,0.254,0.224,�k�k��,2.7,��
2015/03/23,05:10,0.542,0.333,0.565,0.521,0.556,0.253,0.224,�k,2.8,��
2015/03/23,05:20,0.544,0.333,0.564,0.523,0.553,0.254,0.225,�k�k��,2.0,��
2015/03/23,05:30,0.543,0.333,0.562,0.520,0.552,0.254,0.225,�k,1.9,��
2015/03/23,05:40,0.542,0.335,0.563,0.521,0.554,0.253,0.224,�k�k��,1.6,��
2015/03/23,05:50,0.543,0.335,0.568,0.522,0.556,0.253,0.225,���k��,0.8,��
2015/03/23,06:00,0.542,0.333,0.565,0.522,0.553,0.252,0.223,-,CALM,��
2015/03/23,06:10,0.542,0.333,0.564,0.522,0.553,0.254,0.224,�k��,0.8,��
2015/03/23,06:20,0.542,0.335,0.563,0.520,0.556,0.253,0.224,-,CALM,��
2015/03/23,06:30,0.542,0.333,0.565,0.523,0.554,0.255,0.224,��쐼,0.8,��
2015/03/23,06:40,0.542,0.335,0.564,0.522,0.554,0.252,0.225,��,1.7,��
2015/03/23,06:50,0.542,0.333,0.562,0.521,0.555,0.253,0.223,��쓌,1.5,��
2015/03/23,07:00,0.543,0.334,0.565,0.522,0.556,0.254,0.224,��쓌,1.1,��
2015/03/23,07:10,0.542,0.334,0.565,0.519,0.551,0.253,0.223,-,CALM,��
2015/03/23,07:20,0.540,0.334,0.563,0.521,0.553,0.252,0.222,��쓌,1.4,��
2015/03/23,07:30,0.542,0.332,0.564,0.521,0.554,0.253,0.223,��쓌,1.2,��
2015/03/23,07:40,0.543,0.333,0.566,0.518,0.555,0.253,0.224,��,1.1,��
2015/03/23,07:50,0.542,0.334,0.562,0.517,0.555,0.254,0.223,��쓌,1.3,��
2015/03/23,08:00,0.542,0.334,0.563,0.522,0.557,0.253,0.223,��쓌,1.5,��
2015/03/23,08:10,0.543,0.332,0.565,0.516,0.554,0.254,0.223,-,CALM,��
2015/03/23,08:20,0.539,0.331,0.563,0.522,0.554,0.253,0.225,-,CALM,��
2015/03/23,08:30,0.545,0.332,0.565,0.518,0.556,0.253,0.224,��쓌,1.7,��
2015/03/23,08:40,0.541,0.330,0.564,0.520,0.554,0.253,0.225,���쐼,1.7,��
2015/03/23,08:50,0.543,0.333,0.561,0.518,0.556,0.253,0.224,�k��,3.4,��
2015/03/23,09:00,0.540,0.331,0.567,0.522,0.552,0.254,0.224,���k��,4.8,��
2015/03/23,09:10,0.541,0.333,0.563,0.518,0.555,0.253,0.225,���k��,3.1,��
2015/03/23,09:20,0.543,0.334,0.563,0.523,0.558,0.253,0.226,���k��,5.1,��
2015/03/23,09:30,0.538,0.334,0.565,0.518,0.555,0.254,0.225,�k��,4.5,��
2015/03/23,09:40,0.542,0.333,0.563,0.523,0.556,0.252,0.225,�k��,4.2,��
2015/03/23,09:50,0.539,0.331,0.564,0.518,0.555,0.253,0.224,�k��,5.6,��
2015/03/23,10:00,0.544,0.334,0.564,0.520,0.558,0.253,0.225,���k��,4.1,��
2015/03/23,10:10,0.540,0.333,0.564,0.521,0.555,0.255,0.225,���k��,4.2,��
2015/03/23,10:20,0.545,0.333,0.566,0.519,0.559,0.253,0.225,���k��,4.8,��
2015/03/23,10:30,0.541,0.334,0.562,0.523,0.552,0.253,0.223,�k��,5.3,��
2015/03/23,10:40,0.544,0.332,0.565,0.520,0.557,0.253,0.226,�k��,3.7,��
2015/03/23,10:50,0.541,0.333,0.564,0.526,0.554,0.253,0.224,�k��,9.1,��
2015/03/23,11:00,0.544,0.335,0.564,0.521,0.560,0.253,0.226,�k��,8.4,��
2015/03/23,11:10,0.540,0.332,0.563,0.526,0.555,0.253,0.224,�k��,7.8,��
2015/03/23,11:20,0.545,0.334,0.563,0.522,0.559,0.253,0.226,���k��,9.6,��
2015/03/23,11:30,0.543,0.333,0.564,0.522,0.555,0.254,0.225,���k��,10.3,��
2015/03/23,11:40,0.545,0.333,0.564,0.523,0.562,0.253,0.227,���k��,8.6,��
2015/03/23,11:50,0.544,0.335,0.566,0.523,0.556,0.253,0.226,���k��,9.5,��
2015/03/23,12:00,0.548,0.334,0.563,0.523,0.558,0.254,0.225,��,7.0,��
2015/03/23,12:10,0.544,0.335,0.567,0.523,0.558,0.254,0.227,��,11.9,��
2015/03/23,12:20,0.543,0.334,0.562,0.525,0.560,0.252,0.226,��,12.9,��
2015/03/23,12:30,0.546,0.335,0.567,0.518,0.555,0.254,0.225,��,8.5,��
2015/03/23,12:40,0.542,0.333,0.564,0.523,0.560,0.253,0.225,���k��,9.9,��
2015/03/23,12:50,0.547,0.336,0.568,0.523,0.558,0.254,0.226,���k��,10.2,��
2015/03/23,13:00,0.543,0.335,0.569,0.526,0.559,0.254,0.226,���k��,8.5,��
2015/03/23,13:10,0.546,0.334,0.565,0.524,0.561,0.254,0.226,��,12.2,��
2015/03/23,13:20,0.548,0.336,0.568,0.525,0.557,0.255,0.225,��,8.2,��
2015/03/23,13:30,0.544,0.335,0.564,0.525,0.563,0.255,0.227,���k��,9.2,��
2015/03/23,13:40,0.547,0.335,0.569,0.525,0.553,0.254,0.226,��,9.7,��
2015/03/23,13:50,0.544,0.334,0.565,0.523,0.559,0.254,0.226,���k��,7.2,��
2015/03/23,14:00,0.546,0.334,0.569,0.525,0.554,0.255,0.226,���k��,10.3,��
2015/03/23,14:10,0.547,0.335,0.568,0.525,0.562,0.254,0.227,�k,5.0,��
2015/03/23,14:20,0.544,0.336,0.567,0.524,0.556,0.254,0.227,�k,3.2,��
2015/03/23,14:30,0.548,0.335,0.570,0.528,0.558,0.256,0.227,���k��,5.5,��
2015/03/23,14:40,0.547,0.337,0.570,0.528,0.565,0.255,0.225,���k��,7.3,��
2015/03/23,14:50,0.544,0.335,0.567,0.526,0.558,0.254,0.227,���k��,6.7,��
2015/03/23,15:00,0.548,0.335,0.569,0.528,0.560,0.255,0.228,���k��,9.0,��
2015/03/23,15:10,0.545,0.335,0.568,0.525,0.559,0.254,0.228,���k��,6.4,��
2015/03/23,15:20,0.545,0.333,0.568,0.526,0.558,0.255,0.226,���k��,8.2,��
2015/03/23,15:30,0.546,0.335,0.572,0.527,0.562,0.254,0.227,�k��,3.3,��
2015/03/23,15:40,0.545,0.337,0.569,0.526,0.557,0.255,0.227,�k�k��,2.4,��
2015/03/23,15:50,0.547,0.336,0.568,0.527,0.558,0.254,0.227,��,2.2,��
2015/03/23,16:00,0.550,0.335,0.571,0.527,0.561,0.254,0.227,��,0.8,��
2015/03/23,16:10,0.544,0.336,0.570,0.526,0.557,0.255,0.227,��,3.3,��
2015/03/23,16:20,0.548,0.336,0.566,0.528,0.562,0.255,0.227,�k,3.2,��
2015/03/23,16:30,0.549,0.336,0.570,0.526,0.557,0.255,0.227,�k�k��,4.5,��
2015/03/23,16:40,0.545,0.336,0.570,0.525,0.559,0.256,0.226,�k�k��,3.6,��
2015/03/23,16:50,0.546,0.337,0.569,0.526,0.560,0.255,0.227,�k,2.8,��
2015/03/23,17:00,0.549,0.336,0.568,0.525,0.560,0.255,0.227,�k�k��,3.2,��
2015/03/23,17:10,0.547,0.335,0.571,0.526,0.557,0.256,0.226,�k�k��,3.3,��
2015/03/23,17:20,0.547,0.335,0.570,0.526,0.559,0.255,0.227,�k,4.6,��
2015/03/23,17:30,0.550,0.337,0.567,0.528,0.558,0.253,0.226,�k,2.8,��
2015/03/23,17:40,0.548,0.335,0.569,0.525,0.558,0.255,0.227,�k,1.9,��
2015/03/23,17:50,0.547,0.335,0.571,0.525,0.559,0.254,0.227,�k��,2.0,��
2015/03/23,18:00,0.546,0.335,0.568,0.527,0.558,0.255,0.226,�k,4.6,��
2015/03/23,18:10,0.548,0.336,0.568,0.526,0.558,0.255,0.226,�k,3.6,��
2015/03/23,18:20,0.547,0.336,0.571,0.526,0.557,0.254,0.227,�k,3.9,��
2015/03/23,18:30,0.548,0.335,0.572,0.526,0.556,0.255,0.226,�k,2.8,��
2015/03/23,18:40,0.549,0.336,0.569,0.528,0.559,0.255,0.226,�k,3.3,��
2015/03/23,18:50,0.547,0.336,0.570,0.526,0.559,0.254,0.227,�k,1.1,��
2015/03/23,19:00,0.546,0.336,0.570,0.525,0.555,0.254,0.227,�k,2.0,��
2015/03/23,19:10,0.549,0.336,0.570,0.527,0.558,0.255,0.227,�k,3.3,��
2015/03/23,19:20,0.547,0.335,0.569,0.526,0.558,0.256,0.226,�k,3.4,��
2015/03/23,19:30,0.545,0.336,0.570,0.526,0.556,0.254,0.227,�k,3.3,��
2015/03/23,19:40,0.546,0.336,0.572,0.525,0.557,0.255,0.227,�k,1.9,��
2015/03/23,19:50,0.548,0.337,0.569,0.528,0.558,0.255,0.227,�k,1.4,��
2015/03/23,20:00,0.545,0.336,0.567,0.526,0.557,0.255,0.227,���쐼,1.2,��
2015/03/23,20:10,0.546,0.336,0.569,0.525,0.557,0.255,0.226,�k,3.3,��
2015/03/23,20:20,0.545,0.337,0.570,0.526,0.556,0.255,0.226,�k��,1.0,��
2015/03/23,20:30,0.546,0.336,0.570,0.527,0.555,0.256,0.227,�k,1.0,��
2015/03/23,20:40,0.545,0.334,0.570,0.527,0.557,0.255,0.226,-,CALM,��
2015/03/23,20:50,0.544,0.335,0.569,0.526,0.559,0.255,0.226,��쐼,0.8,��
2015/03/23,21:00,0.545,0.336,0.570,0.526,0.556,0.256,0.228,�k,1.1,��
2015/03/23,21:10,0.545,0.337,0.569,0.526,0.555,0.256,0.226,��쓌,1.2,��
2015/03/23,21:20,0.545,0.335,0.567,0.527,0.555,0.255,0.227,��,1.1,��
2015/03/23,21:30,0.545,0.334,0.569,0.526,0.558,0.255,0.226,�쐼,1.3,��
2015/03/23,21:40,0.544,0.335,0.569,0.525,0.558,0.255,0.228,�k,1.2,��
2015/03/23,21:50,0.547,0.336,0.569,0.529,0.555,0.255,0.227,���k��,5.9,��
2015/03/23,22:00,0.546,0.338,0.569,0.527,0.556,0.255,0.226,���k��,5.8,��
2015/03/23,22:10,0.544,0.334,0.569,0.528,0.555,0.254,0.228,��,5.9,��
2015/03/23,22:20,0.546,0.335,0.571,0.527,0.558,0.254,0.226,��,2.4,��
2015/03/23,22:30,0.545,0.335,0.569,0.525,0.558,0.256,0.226,��,4.2,��
2015/03/23,22:40,0.545,0.336,0.569,0.525,0.555,0.255,0.227,��쐼,3.7,��
2015/03/23,22:50,0.546,0.336,0.569,0.527,0.556,0.255,0.226,��,2.1,��
2015/03/23,23:00,0.546,0.336,0.570,0.527,0.556,0.256,0.227,��,1.9,��
2015/03/23,23:10,0.546,0.335,0.569,0.528,0.557,0.256,0.227,��,4.2,��
2015/03/23,23:20,0.546,0.338,0.568,0.526,0.557,0.256,0.227,�k�k��,1.0,��
2015/03/23,23:30,0.545,0.335,0.569,0.526,0.555,0.257,0.228,�k�k��,3.1,��
2015/03/23,23:40,0.546,0.335,0.569,0.526,0.556,0.255,0.228,�k,2.7,��
2015/03/23,23:50,0.545,0.336,0.570,0.526,0.558,0.255,0.227,�k�k��,1.9,��
